Temp
62 62 62 62 62 62 62 61 62 62 62 62 62 62 63 63 63 61 58 63 64 65 65 63 66 68 73 71 72 71 61 58 61 62 64 71 70 73 73 71 70 70 73 74 71
62 62 62 62 62 62 61 61 61 61 61 61 62 62 62 62 60 57 67 67 66 65 62 59 59 65 66 68 69 65 59 60 66 67 67 69 70 72 71 70 69 69 68 71 70
62 61 61 61 61 62 61 61 60 60 61 61 61 61 62 62 56 60 68 68 67 65 64 61 62 62 60 68 65 64 59 63 65 68 68 68 70 73 71 68 74 71 65 63 69
61 61 61 61 61 62 61 61 60 60 60 60 61 61 61 61 45 63 65 67 67 65 60 60 59 55 58 58 67 58 64 64 65 65 67 67 70 69 72 73 73 76 70 64 67
60 59 60 60 61 60 60 61 60 60 60 60 60 61 60 53 55 65 64 67 66 62 58 58 56 55 51 60 63 60 62 65 67 65 67 68 68 69 71 75 73 73 66 64 67
60 59 59 60 60 60 60 60 60 60 60 60 60 60 56 46 65 65 65 65 64 61 58 59 58 58 54 55 58 64 63 64 66 65 67 65 68 68 70 70 70 68 64 65 67
59 59 59 59 60 59 60 60 60 59 59 60 60 59 53 53 64 65 64 63 63 61 58 61 62 58 56 52 61 63 56 62 64 64 65 67 63 64 69 68 64 64 64 65 66
58 58 58 59 59 59 59 59 59 59 59 60 60 57 49 64 66 63 65 63 63 62 61 62 63 58 56 57 55 51 53 50 63 63 65 65 58 66 67 68 66 62 62 63 64
58 58 58 59 59 58 59 59 58 58 59 60 56 53 48 63 58 62 62 59 61 60 60 62 58 54 53 49 46 47 42 48 55 63 62 63 60 64 65 66 66 65 62 62 65
58 58 58 59 58 58 58 58 57 57 58 58 56 47 54 50 56 59 62 60 58 55 54 54 52 49 49 47 39 42 43 49 52 58 59 59 60 65 63 64 66 66 68 68 69
57 58 58 58 58 58 56 54 49 47 50 48 48 47 50 56 57 57 60 58 56 52 46 51 45 43 50 49 48 51 48 48 56 58 58 59 60 66 65 63 65 66 67 68 69
58 58 58 58 58 56 56 50 49 50 43 48 48 48 51 54 48 54 59 52 50 44 49 46 43 54 55 50 47 46 45 45 48 52 56 58 56 64 64 65 67 67 66 68 68
57 58 58 57 56 55 52 50 54 53 43 44 46 45 48 51 46 49 54 53 48 43 45 44 48 53 50 47 44 44 42 44 46 49 55 56 55 57 64 65 65 68 70 69 67
57 57 57 55 54 52 50 53 53 53 34 37 42 46 49 49 44 54 56 53 49 44 45 44 52 50 47 47 48 41 51 49 44 44 39 56 44 56 62 62 62 65 67 68 67
57 56 56 57 51 49 49 52 52 50 21 39 42 53 49 44 45 47 55 53 45 42 42 39 44 48 46 49 52 49 53 48 45 44 43 44 46 57 58 58 61 64 65 68 66
56 55 55 54 53 48 51 51 50 32 21 32 41 41 42 43 44 47 49 53 52 44 42 40 46 44 51 51 54 53 47 44 44 42 34 42 46 51 53 58 61 60 60 60 60
54 53 52 52 46 51 51 47 31 24 32 30 33 40 38 38 40 41 42 42 40 34 33 40 40 46 50 45 48 47 45 33 32 31 33 38 41 50 55 57 61 58 56 57 57
53 53 49 48 50 50 48 38 23 21 23 35 36 37 31 35 37 40 38 38 45 43 36 33 32 41 48 48 43 43 43 39 32 31 34 38 36 47 53 55 57 58 56 56 56
53 49 48 49 48 49 42 27 27 25 32 32 35 29 31 32 33 37 36 38 44 46 35 34 35 45 45 48 51 41 40 46 38 33 35 37 41 51 50 51 53 52 53 53 54
49 46 45 47 48 48 34 30 28 32 36 33 26 29 27 28 31 33 35 42 41 48 51 39 33 41 44 46 48 48 48 37 38 30 30 36 37 47 45 48 52 51 51 51 52
48 40 47 47 49 41 30 28 27 35 38 32 28 27 30 30 32 32 35 41 45 46 50 43 37 36 41 38 39 40 39 41 44 40 35 33 42 52 52 51 50 52 52 51 51
42 33 46 48 35 24 29 25 33 33 39 36 35 32 31 31 31 32 34 41 47 48 41 45 37 33 33 39 42 46 41 43 37 32 37 37 43 51 53 55 54 52 52 53 51
34 36 45 46 30 29 27 28 31 31 34 34 32 35 33 31 28 32 37 46 47 46 44 42 35 31 31 37 40 38 42 43 43 39 33 36 42 50 51 53 53 48 48 48 47
37 32 35 37 33 31 27 28 27 34 34 36 35 35 32 31 34 31 33 43 45 47 46 47 36 34 34 34 37 35 37 41 42 36 36 40 44 47 48 49 52 53 53 51 47
34 30 28 31 31 32 32 31 30 29 33 35 32 32 31 27 26 29 35 38 44 45 46 45 34 37 34 35 37 39 38 38 37 42 39 44 41 48 49 50 51 53 52 50 48
35 32 29 27 28 30 32 30 30 32 31 31 30 32 31 29 30 26 33 35 38 40 43 40 32 38 31 36 37 34 40 41 41 41 41 41 43 51 50 50 48 49 49 49 49
37 37 37 28 28 27 31 31 32 33 35 35 34 31 30 32 33 34 34 34 35 41 35 35 35 33 30 33 34 32 34 38 39 42 44 40 48 48 46 47 49 49 50 50 51
MSLP
1020.76 1020.63 1020.56 1020.61 1020.67 1020.66 1020.55 1020.45 1020.28 1020.22 1020.11 1020.04 1019.82 1019.51 1019.28 1019.01 1018.55 1018.49 1017.74 1017.18 1017.13 1017.17 1017.02 1017.05 1016.18 1016.36 1016.12 1015.99 1015.96 1015.65 1014.87 1013.81 1013.57 1013.24 1013.21 1013.21 1012.94 1013.30 1013.67 1013.65 1014.36 1014.87 1014.96 1015.48 1017.01
1020.39 1020.36 1020.38 1020.35 1020.33 1020.39 1020.37 1020.27 1020.21 1020.07 1019.96 1019.86 1019.72 1019.40 1019.13 1018.89 1018.41 1017.65 1016.84 1016.74 1016.71 1016.86 1017.50 1017.41 1017.40 1016.64 1015.92 1015.75 1015.69 1015.31 1014.89 1014.21 1014.27 1014.04 1013.74 1013.60 1013.28 1013.08 1013.38 1013.72 1014.28 1015.01 1015.94 1016.40 1017.31
1019.98 1020.02 1020.08 1020.08 1020.11 1020.07 1020.13 1020.12 1020.09 1019.96 1019.80 1019.63 1019.52 1019.34 1018.98 1018.74 1018.10 1016.56 1016.13 1016.37 1016.45 1016.84 1017.33 1017.29 1017.12 1016.71 1015.99 1015.55 1015.54 1015.33 1014.79 1014.72 1014.76 1014.56 1014.37 1013.91 1013.42 1013.24 1013.07 1013.25 1013.33 1014.06 1015.78 1016.80 1017.23
1019.58 1019.59 1019.66 1019.72 1019.75 1019.74 1019.87 1019.90 1019.93 1019.81 1019.69 1019.51 1019.39 1019.16 1018.89 1018.52 1017.45 1016.11 1016.20 1016.13 1016.41 1016.82 1016.96 1017.10 1016.90 1016.51 1015.75 1015.30 1015.16 1015.30 1015.12 1015.01 1015.07 1014.89 1014.57 1014.12 1013.71 1013.25 1013.11 1012.98 1013.61 1013.94 1015.43 1016.54 1017.01
1019.10 1019.16 1019.26 1019.35 1019.41 1019.51 1019.63 1019.67 1019.75 1019.71 1019.57 1019.40 1019.18 1018.98 1018.62 1017.88 1016.57 1016.26 1016.05 1015.59 1016.21 1016.71 1016.66 1016.72 1016.37 1016.33 1015.94 1015.54 1015.55 1015.30 1015.25 1015.07 1015.23 1014.85 1014.83 1014.36 1013.67 1013.45 1013.10 1013.27 1013.81 1014.40 1015.86 1016.49 1017.02
1018.63 1018.82 1018.97 1018.98 1019.12 1019.28 1019.40 1019.55 1019.62 1019.56 1019.49 1019.31 1019.06 1018.87 1018.41 1017.24 1016.45 1016.34 1016.06 1015.50 1015.65 1016.12 1016.26 1016.65 1016.22 1016.17 1016.27 1016.16 1015.56 1015.29 1015.52 1015.13 1015.09 1014.95 1014.89 1014.39 1013.74 1013.81 1013.35 1013.91 1014.26 1015.03 1016.01 1016.61 1016.97
1018.20 1018.39 1018.60 1018.60 1018.73 1019.03 1019.28 1019.43 1019.45 1019.46 1019.41 1019.20 1018.98 1018.69 1017.90 1016.57 1016.34 1016.24 1015.95 1015.59 1015.57 1015.67 1015.96 1016.37 1016.15 1015.94 1016.18 1016.12 1015.84 1015.76 1015.66 1015.51 1015.08 1015.04 1014.53 1014.01 1013.75 1013.34 1013.57 1014.13 1014.82 1015.49 1016.12 1016.69 1017.03
1017.74 1017.98 1018.23 1018.36 1018.53 1018.91 1019.07 1019.23 1019.39 1019.34 1019.27 1019.09 1018.88 1018.60 1017.18 1016.28 1016.30 1016.18 1015.80 1015.53 1015.39 1015.81 1015.82 1015.95 1016.17 1016.07 1016.11 1016.25 1016.26 1016.21 1016.22 1015.76 1014.85 1014.69 1014.27 1014.30 1013.33 1013.29 1013.78 1014.17 1014.75 1015.77 1016.16 1016.58 1017.03
1017.33 1017.68 1017.91 1018.02 1018.33 1018.76 1018.91 1019.14 1019.35 1019.24 1019.13 1018.95 1018.89 1018.37 1016.85 1016.35 1016.24 1016.05 1015.98 1015.63 1015.47 1015.77 1015.88 1016.11 1016.20 1016.16 1016.56 1016.41 1016.36 1016.08 1015.44 1015.21 1014.86 1014.49 1014.27 1014.12 1013.15 1013.65 1014.15 1014.12 1014.64 1015.41 1016.05 1016.37 1016.81
1016.93 1017.34 1017.65 1017.85 1018.22 1018.59 1018.84 1019.25 1019.35 1019.24 1019.02 1018.86 1018.81 1018.73 1017.15 1016.83 1016.53 1016.16 1015.81 1015.74 1015.57 1015.60 1015.92 1015.78 1015.96 1015.94 1015.77 1015.69 1015.32 1015.36 1015.48 1015.43 1014.84 1014.77 1014.45 1013.98 1013.27 1013.46 1013.83 1013.95 1014.30 1014.93 1015.49 1015.62 1016.18
1016.67 1017.12 1017.43 1017.80 1018.27 1018.59 1019.10 1019.56 1019.82 1019.58 1019.05 1018.58 1018.43 1018.06 1017.64 1017.34 1016.97 1016.13 1015.79 1015.70 1015.80 1015.60 1015.46 1015.34 1015.50 1014.77 1014.80 1014.96 1015.43 1015.24 1015.61 1015.26 1014.96 1014.94 1014.51 1013.83 1013.29 1013.00 1013.54 1013.77 1014.12 1014.45 1015.00 1015.31 1015.88
1016.70 1017.04 1017.37 1017.88 1018.37 1018.92 1019.15 1019.32 1019.47 1019.63 1018.95 1018.81 1018.64 1018.46 1018.12 1017.87 1017.11 1016.25 1016.12 1015.99 1015.76 1015.89 1015.55 1015.49 1014.47 1014.67 1014.91 1015.40 1015.64 1015.82 1015.58 1015.71 1015.72 1015.48 1015.02 1013.99 1013.36 1013.16 1013.30 1013.33 1013.55 1013.95 1014.52 1014.98 1015.82
1016.79 1017.13 1017.64 1018.18 1018.75 1019.17 1019.39 1019.72 1019.77 1019.62 1019.30 1019.02 1018.87 1018.58 1018.29 1018.14 1017.32 1016.58 1016.28 1015.82 1015.72 1015.71 1015.05 1014.85 1014.63 1014.77 1014.88 1015.56 1016.14 1016.36 1016.30 1015.76 1015.95 1016.29 1015.69 1014.72 1013.45 1013.04 1013.00 1013.24 1013.52 1013.84 1014.22 1014.84 1015.78
1017.02 1017.45 1018.05 1018.66 1019.07 1019.55 1019.72 1019.91 1019.95 1019.88 1019.74 1019.56 1018.89 1018.63 1018.34 1018.07 1017.58 1017.02 1016.47 1016.11 1015.75 1015.66 1015.59 1015.59 1015.06 1014.73 1014.85 1015.00 1015.65 1015.83 1015.95 1015.88 1016.20 1016.24 1015.90 1014.98 1012.99 1012.32 1012.50 1012.79 1013.41 1013.77 1014.15 1014.81 1015.92
1017.72 1018.25 1018.66 1018.80 1019.37 1019.91 1020.33 1020.16 1020.09 1020.05 1020.07 1019.96 1019.04 1018.69 1018.39 1018.30 1018.07 1017.18 1016.86 1016.45 1016.13 1016.65 1017.01 1016.64 1015.67 1015.10 1014.62 1014.30 1014.71 1014.66 1015.26 1016.03 1016.44 1016.27 1016.11 1015.61 1014.63 1012.09 1012.47 1012.31 1012.99 1013.62 1014.25 1015.04 1016.24
1018.60 1019.01 1019.24 1019.52 1019.87 1020.63 1020.40 1020.30 1020.22 1020.55 1020.47 1020.15 1019.51 1018.89 1018.54 1018.43 1018.02 1017.58 1017.06 1016.90 1016.61 1016.72 1017.39 1017.31 1016.57 1016.04 1014.33 1014.38 1014.44 1015.09 1015.73 1016.56 1016.62 1016.71 1016.42 1015.56 1014.64 1012.35 1012.32 1012.31 1012.92 1014.08 1014.90 1015.96 1017.08
1019.50 1019.59 1019.69 1020.09 1020.81 1020.76 1020.50 1020.49 1020.92 1021.14 1021.77 1021.15 1020.31 1019.65 1019.37 1018.88 1018.42 1017.92 1017.28 1016.98 1016.51 1017.03 1017.64 1017.38 1016.58 1015.70 1014.61 1014.91 1015.17 1015.18 1015.67 1016.47 1016.97 1017.07 1016.49 1015.97 1015.38 1013.27 1013.24 1013.21 1013.13 1013.92 1015.35 1016.56 1017.82
1020.02 1019.89 1020.97 1021.36 1021.28 1020.84 1020.68 1021.04 1021.56 1022.36 1022.28 1021.77 1021.13 1020.49 1020.13 1019.78 1019.03 1018.36 1017.73 1016.92 1016.74 1016.46 1017.02 1016.91 1016.78 1015.64 1014.70 1014.32 1014.28 1014.97 1014.96 1015.04 1015.27 1016.19 1016.57 1016.53 1015.16 1014.08 1014.16 1014.23 1014.21 1014.94 1016.09 1017.26 1018.35
1020.17 1020.74 1021.18 1021.32 1021.28 1021.01 1021.22 1021.71 1022.03 1022.50 1022.45 1021.95 1021.35 1020.98 1020.47 1020.29 1019.93 1018.80 1018.11 1017.15 1016.48 1016.32 1016.28 1016.42 1016.22 1015.32 1015.17 1014.65 1014.42 1014.98 1014.79 1015.31 1015.36 1016.69 1016.43 1015.95 1015.47 1014.47 1014.79 1014.99 1015.13 1015.92 1016.98 1017.89 1018.80
1020.62 1021.26 1021.80 1021.87 1021.57 1021.21 1021.82 1022.48 1022.85 1022.83 1022.52 1022.29 1021.91 1021.57 1021.01 1020.60 1020.02 1019.18 1018.10 1016.86 1016.31 1015.89 1015.73 1016.62 1016.35 1015.75 1015.59 1015.25 1014.99 1014.59 1014.93 1015.32 1015.29 1015.85 1015.70 1015.46 1015.06 1013.68 1014.52 1014.83 1015.47 1016.32 1017.29 1018.45 1019.52
1020.93 1021.60 1021.98 1021.86 1021.62 1021.79 1022.69 1023.22 1023.10 1022.87 1022.62 1022.44 1022.18 1021.87 1021.24 1020.71 1020.17 1019.27 1018.01 1016.86 1016.17 1015.65 1015.86 1016.37 1016.90 1016.51 1016.15 1015.85 1015.37 1015.31 1015.01 1015.24 1015.28 1015.40 1014.99 1014.83 1013.67 1013.41 1013.50 1014.61 1015.57 1016.62 1017.65 1018.75 1019.89
1021.61 1022.18 1022.31 1021.70 1022.45 1023.73 1023.53 1023.53 1023.29 1022.77 1022.59 1022.26 1022.15 1021.90 1021.49 1020.94 1020.10 1019.19 1017.81 1016.62 1015.94 1015.62 1015.65 1016.22 1016.81 1016.77 1016.75 1016.53 1016.15 1015.01 1015.01 1014.87 1015.05 1015.68 1015.46 1014.81 1013.97 1014.13 1014.16 1014.83 1015.98 1017.00 1018.26 1019.47 1020.28
1022.17 1022.68 1022.58 1022.34 1022.96 1023.67 1023.93 1023.67 1023.31 1022.73 1022.36 1022.14 1021.91 1021.56 1021.23 1021.00 1020.36 1019.09 1017.92 1016.55 1016.26 1015.77 1015.11 1015.75 1016.74 1017.15 1017.15 1016.98 1016.17 1015.88 1015.44 1015.21 1015.10 1014.97 1015.16 1014.69 1014.36 1014.48 1014.65 1015.45 1016.35 1017.05 1018.57 1019.74 1020.40
1022.71 1023.17 1023.25 1023.22 1023.50 1023.45 1023.58 1023.19 1022.96 1022.44 1022.21 1021.87 1021.45 1021.44 1021.15 1020.67 1020.22 1019.09 1018.17 1016.58 1016.12 1015.79 1015.54 1015.61 1016.42 1016.81 1016.59 1016.56 1016.38 1016.23 1015.94 1015.54 1015.21 1015.19 1014.99 1014.51 1014.14 1014.35 1014.82 1015.44 1016.19 1017.15 1017.88 1018.79 1019.90
1023.13 1023.90 1024.44 1023.91 1023.66 1023.36 1023.31 1022.98 1022.53 1022.15 1022.00 1021.61 1021.22 1021.03 1020.87 1020.59 1020.12 1019.15 1018.27 1017.41 1016.35 1015.79 1015.80 1015.93 1016.00 1016.62 1016.81 1016.74 1016.48 1016.09 1016.11 1016.02 1015.79 1015.15 1014.86 1014.33 1014.19 1013.89 1014.55 1015.20 1016.14 1017.23 1018.38 1019.18 1019.97
1023.19 1023.85 1024.70 1024.22 1023.90 1023.47 1023.09 1022.44 1022.16 1021.98 1021.86 1021.34 1021.21 1020.85 1020.75 1020.34 1019.87 1019.65 1018.43 1017.60 1016.13 1016.15 1015.91 1016.13 1016.32 1016.56 1017.24 1017.04 1016.94 1016.76 1016.59 1016.36 1015.82 1015.44 1014.85 1014.73 1014.33 1014.25 1015.08 1015.65 1016.59 1017.25 1018.13 1018.77 1019.43
1023.35 1023.71 1023.59 1024.10 1023.77 1023.56 1022.57 1022.18 1021.93 1021.89 1021.50 1021.06 1020.69 1020.68 1020.25 1020.09 1020.05 1019.73 1019.22 1018.07 1017.18 1015.71 1016.09 1016.39 1016.31 1016.56 1017.59 1017.72 1017.47 1017.47 1016.65 1016.20 1015.85 1015.23 1014.77 1014.70 1014.15 1014.60 1015.38 1015.92 1016.44 1016.84 1017.43 1018.14 1018.90
Wind_Speed
12 11 10 9 9 8 9 9 7 7 8 8 9 9 10 10 8 4 8 2 4 6 5 6 3 7 7 7 4 2 4 5 3 4 4 3 4 4 2 7 2 3 2 3 19
13 12 11 11 10 9 8 8 8 7 7 8 9 9 9 10 5 9 6 8 9 8 4 5 8 10 9 11 6 7 4 4 2 2 2 3 4 7 6 8 5 5 7 15 19
15 12 12 11 12 10 8 6 6 6 7 7 9 9 9 9 5 6 5 16 10 5 6 3 5 4 8 9 7 7 6 3 2 1 4 4 2 2 4 7 7 11 14 17 18
14 13 13 13 12 12 9 6 7 6 6 7 9 10 9 3 8 3 9 12 12 5 3 8 6 7 8 13 12 8 8 3 2 1 4 5 6 3 6 1 3 4 18 18 19
13 13 14 13 13 13 9 7 7 6 6 8 8 10 6 8 9 5 14 7 15 7 7 7 7 4 6 14 14 16 6 5 7 5 6 6 4 6 8 4 3 13 18 19 18
12 12 12 13 13 12 8 6 7 5 6 8 8 10 6 15 3 7 10 7 14 14 7 8 9 5 6 6 18 12 12 11 6 5 7 6 5 3 3 5 10 14 16 17 18
13 11 11 12 12 10 7 6 5 4 7 8 9 5 8 13 1 8 8 5 4 10 10 11 5 7 7 5 5 10 10 12 13 6 7 5 7 5 2 7 10 11 13 15 15
12 11 12 10 12 11 8 5 3 5 8 8 8 5 7 2 4 6 6 4 4 5 3 5 4 4 4 3 6 5 3 10 9 8 3 8 5 1 3 8 10 11 12 14 14
11 11 10 10 12 9 8 4 3 7 8 7 5 4 5 3 3 3 3 4 2 3 3 6 4 3 3 7 5 8 8 13 8 6 5 10 4 4 4 7 9 11 11 13 14
11 11 8 11 10 9 7 3 1 5 2 2 2 4 4 2 4 5 3 4 2 5 6 5 5 5 5 11 10 10 7 20 15 8 7 10 7 3 4 6 8 9 12 13 14
10 10 8 11 11 11 7 2 3 3 2 3 1 3 4 8 3 3 3 3 1 4 7 7 5 10 18 4 4 9 20 11 14 5 8 13 10 9 4 5 9 10 11 12 13
9 9 12 12 12 11 4 2 1 3 3 2 5 5 3 3 4 3 2 5 4 4 7 5 10 12 10 9 1 1 13 19 2 3 5 8 13 11 7 7 11 12 13 14 13
9 11 13 13 14 4 2 2 2 1 2 3 2 3 3 3 2 3 2 2 2 3 1 8 2 8 9 9 8 9 10 8 6 7 4 6 12 8 8 7 6 10 12 13 14
10 14 16 15 5 1 2 2 3 2 1 5 3 2 2 3 2 3 3 3 3 2 2 7 13 9 7 16 16 14 18 6 10 12 6 11 6 14 14 11 9 10 13 14 13
15 16 13 0 7 2 3 3 2 1 3 5 2 2 2 2 5 4 3 1 5 7 3 2 4 18 17 18 17 7 14 9 7 8 4 7 10 10 11 16 11 13 12 12 12
17 14 8 4 2 3 3 2 1 2 2 2 4 3 2 1 3 5 2 2 0 2 3 6 4 7 8 4 17 14 11 5 3 3 6 10 15 12 9 13 13 8 10 10 11
17 17 7 3 3 4 2 2 1 2 3 4 4 5 7 1 2 3 1 7 6 8 5 2 4 5 3 7 6 3 13 2 3 3 2 1 11 10 1 4 8 14 13 12 12
15 13 8 6 5 3 1 1 1 2 3 2 3 5 4 4 2 1 2 5 9 2 2 7 5 6 5 8 6 12 7 4 6 6 4 2 7 5 3 2 3 10 13 14 14
5 3 3 7 7 2 2 1 2 4 3 2 5 1 2 2 3 2 5 5 7 12 6 3 5 2 1 2 12 5 8 2 6 3 3 4 2 7 3 6 11 15 16 15 16
2 2 2 9 7 1 3 2 2 3 2 2 3 3 3 1 3 3 4 4 6 12 9 3 4 1 1 2 7 6 9 4 2 8 5 4 3 7 10 12 13 16 16 16 16
3 2 2 7 2 3 1 3 4 5 5 4 3 3 6 2 4 4 4 4 10 15 14 7 3 1 1 1 6 6 5 2 4 2 3 5 4 1 10 14 15 15 16 18 17
2 1 4 4 1 1 2 4 2 3 6 6 4 7 6 2 4 5 8 9 9 12 12 8 2 3 1 5 4 2 5 4 3 5 0 1 2 1 3 13 15 16 16 16 15
2 1 2 2 2 1 1 4 4 4 6 5 6 9 5 4 6 8 5 7 10 14 16 9 4 3 1 3 3 1 4 3 4 2 2 3 4 3 4 12 16 18 15 14 13
2 1 2 3 0 3 3 3 3 5 4 6 4 4 4 7 11 5 5 5 6 17 8 10 4 2 1 3 2 5 3 2 2 3 6 3 4 8 8 13 16 17 17 17 12
3 1 1 1 2 3 3 2 4 2 5 5 4 7 4 4 3 11 15 8 6 11 11 5 8 4 3 4 2 7 13 7 4 4 5 5 6 3 11 13 15 15 14 16 15
2 3 1 1 2 3 5 3 2 2 3 2 4 8 10 7 5 4 4 10 9 8 11 1 4 5 3 3 3 2 10 10 3 4 2 2 4 3 5 10 12 15 16 17 16
1 1 1 2 2 1 3 2 2 0 3 8 8 10 10 7 7 10 9 11 8 11 3 4 6 4 4 3 5 3 9 8 4 5 3 3 2 6 5 8 12 15 17 17 16
Wind_Direction
275 272 268 267 273 286 291 292 288 294 297 303 315 326 331 330 318 254 247 218 206 161 31 321 0 254 194 207 208 189 235 213 186 178 92 39 217 134 114 141 156 106 87 100 145
263 265 262 268 264 267 281 288 279 292 293 294 304 315 325 334 294 255 241 194 195 157 176 186 200 197 181 189 190 216 228 193 61 62 23 342 284 155 181 163 168 149 89 131 152
266 262 262 252 266 260 265 277 273 290 297 292 298 309 317 323 274 242 264 215 205 218 200 179 181 206 188 182 179 183 225 147 151 73 346 338 39 179 197 202 196 189 153 155 163
257 256 253 256 244 252 253 254 259 275 297 299 299 304 311 258 228 107 352 217 204 222 187 187 179 169 199 191 184 193 216 197 243 75 334 340 323 284 233 99 18 177 159 159 170
249 251 252 247 244 246 243 246 248 269 295 298 298 301 300 219 237 355 325 295 194 190 198 202 159 150 198 200 199 216 186 226 240 290 289 300 299 291 255 203 112 139 157 169 171
244 245 249 248 235 239 228 243 241 260 291 298 297 305 239 240 333 335 323 296 189 178 184 220 197 170 129 210 197 199 222 237 265 252 270 271 281 264 78 131 133 150 166 174 174
237 238 243 239 225 227 209 234 234 265 284 293 294 292 248 241 265 321 308 296 164 188 185 219 187 178 149 157 194 212 198 232 253 232 228 204 242 232 100 152 146 159 166 175 178
233 226 237 228 214 209 187 209 224 269 283 284 288 270 252 240 286 287 290 286 168 186 226 171 179 126 171 107 129 152 110 196 182 182 192 210 205 238 158 177 164 163 169 175 176
222 215 225 210 205 194 163 169 234 279 287 292 264 248 254 325 267 310 264 270 225 160 170 177 169 174 126 190 158 175 191 197 189 204 166 221 204 129 186 184 177 170 173 175 183
212 199 215 196 185 155 137 154 269 308 269 228 251 238 262 6 307 318 277 248 260 182 155 187 181 216 160 181 199 189 181 201 198 178 205 204 228 164 174 190 192 181 180 178 183
195 188 189 178 154 138 121 145 226 210 233 255 348 291 323 324 266 259 307 171 143 254 201 179 192 215 215 181 69 167 200 201 197 167 200 214 226 236 180 195 204 186 185 181 185
174 174 169 163 145 120 115 211 0 17 293 346 286 290 276 324 302 290 293 207 179 265 171 213 224 208 197 141 99 106 190 206 124 337 223 221 236 238 199 215 217 193 186 186 166
148 158 147 143 121 97 98 75 35 281 296 2 349 321 326 300 288 298 245 214 249 214 192 219 297 177 160 180 188 248 264 170 161 169 266 233 241 217 213 219 212 211 192 190 185
134 133 131 126 84 96 75 76 61 310 355 355 354 34 306 307 259 295 294 286 214 347 342 284 228 210 181 200 175 214 220 191 143 160 198 222 246 209 209 202 201 197 194 185 180
115 115 116 283 129 127 356 22 18 237 284 0 0 336 357 313 326 59 315 249 200 92 359 38 258 198 202 207 191 220 158 164 161 180 131 202 234 204 196 212 196 193 191 181 172
100 97 100 65 73 34 24 4 309 242 258 9 316 343 294 103 337 312 159 280 320 122 353 270 286 263 201 140 190 137 111 51 137 169 211 194 215 218 189 202 194 178 173 161 151
78 62 53 12 59 338 341 3 250 231 347 14 353 349 343 307 349 4 222 187 191 171 206 289 275 287 238 143 140 133 160 153 143 191 227 322 210 247 181 215 220 181 161 149 143
81 76 65 55 344 315 34 63 195 47 268 308 280 301 293 350 273 170 249 215 216 179 146 187 227 207 173 204 173 182 175 184 165 180 137 311 217 217 322 335 116 139 141 138 137
63 35 42 352 350 1 65 89 232 185 183 339 315 277 238 294 230 221 230 245 214 205 190 222 240 309 322 301 166 158 198 97 104 29 150 200 295 269 163 162 148 143 147 143 136
75 74 35 333 333 57 70 294 235 199 198 241 278 237 263 183 163 201 243 205 207 207 214 152 274 41 152 271 71 212 138 103 33 153 209 189 258 228 201 182 165 156 151 143 134
58 49 356 336 288 52 224 236 252 222 205 211 233 282 246 251 207 239 249 257 218 194 194 146 1 41 335 254 173 153 158 86 99 308 174 160 211 157 203 180 171 159 153 148 142
95 295 6 316 57 354 197 198 236 219 199 237 253 270 267 267 240 241 224 235 189 190 188 205 116 283 315 290 282 311 137 158 180 178 245 348 96 81 172 173 169 152 150 151 148
84 335 26 305 218 213 271 260 249 210 203 202 234 226 204 239 246 217 241 251 219 195 182 161 160 195 136 128 29 184 162 128 111 79 191 174 128 136 136 173 166 149 155 165 157
126 352 356 58 25 171 218 249 263 214 239 216 252 247 224 227 222 258 239 268 204 210 188 158 138 251 113 102 123 164 157 141 82 140 157 239 139 186 180 181 177 172 167 165 161
17 95 31 247 205 229 172 254 259 266 213 210 225 229 260 253 236 232 239 267 232 203 187 209 175 181 60 11 3 158 165 159 188 188 169 203 211 162 185 183 184 179 178 175 173
151 162 126 315 261 243 202 232 251 153 248 202 241 272 258 250 233 287 250 214 204 192 182 114 155 143 71 356 80 350 160 154 144 184 133 4 275 136 102 133 156 171 175 189 191
126 85 241 76 263 223 218 230 203 214 194 227 244 288 265 255 249 263 256 290 275 184 126 130 150 143 132 60 96 268 196 181 177 237 154 187 262 145 157 184 183 181 186 189 188